Tracking 18794 objects as of 21-September-2017
HD Live streaming from Space Station
objects crossing your sky now

GLOBALSTAR M003

Track GLOBALSTAR M003 now!
10-day predictions
GLOBALSTAR M003 is classified as:


NORAD ID: 25165
Int'l Code: 1998-008D
Perigee: 1,629.3 km
Apogee: 1,640.4 km
Inclination: 52.0 °
Period: 118.8 minutes
Semi major axis: 8005 km
RCS: 2.2435 m2 (large)
Launch date: February 14, 1998
Source: Globalstar (GLOB)
Launch site: AIR FORCE EASTERN TEST RANGE (AFETR)
aabbcc
Your satellite tracking list
Your tracking list is empty





NASA's NSSDC Master Catalog

Two Line Element Set (TLE):
1 25165U 98008D   17263.90578212  .00000010  00000-0  10587-2 0  9991
2 25165  51.9909  76.9397 0006946   5.3170 154.0090 12.11962737890618
Source of the keplerian elements: AFSPC